User: anonymous   Login
Location: *
(18.5200°S, 46.4500°E)
Time: 22:40:26
(UTC+00:00)
Language:

Cosmos 1725 Rocket - Orbit

View from above orbital plane
View from above orbital plane
View from above satellite
View from above satellite

Ground track
Ground track

The orbit data is extracted from the following two-line orbital elements,

1 16494U 86005B   19261.30285001  .00000054  00000-0  39231-4 0  9992
2 16494  82.9349 179.5526 0020979  94.9277  18.9445 13.76500059691150
Epoch (UTC): 18 September 2019 07:16:06
Eccentricity: 0.0020979
inclination: 82.9349°
perigee height: 961 km
apogee height: 992 km
right ascension of ascending node: 179.5526°
argument of perigee: 94.9277°
revolutions per day: 13.76500059
mean anomaly at epoch: 18.9445°
orbit number at epoch: 69115

The dashed part of the orbit path shows where the satellite is in the earth's shadow,  

DLR